TimeEDT,TemperatureF,Dew PointF,Humidity,Sea Level PressureIn,VisibilityMPH,Wind Direction,Wind SpeedMPH,Gust SpeedMPH,PrecipitationIn,Events,Conditions,WindDirDegrees,DateUTC
12:51 AM,69.1,68.0,96,30.12,0.0,Calm,Calm,-,N/A,Fog,Fog,0,2012-10-04 04:51:00
1:51 AM,69.1,68.0,96,30.14,0.0,WSW,5.8,-,N/A,Fog,Fog,240,2012-10-04 05:51:00
2:03 AM,68.0,68.0,100,30.13,0.0,WSW,5.8,-,N/A,Fog,Fog,250,2012-10-04 06:03:00
2:31 AM,68.0,68.0,100,30.12,0.5,SW,3.5,-,N/A,,Overcast,230,2012-10-04 06:31:00
2:51 AM,68.0,66.9,96,30.13,0.5,SW,3.5,-,N/A,,Overcast,220,2012-10-04 06:51:00
3:13 AM,66.2,66.2,100,30.12,0.5,Calm,Calm,-,N/A,,Mostly Cloudy,0,2012-10-04 07:13:00
3:51 AM,66.9,66.0,97,30.12,2.0,Calm,Calm,-,N/A,,Overcast,0,2012-10-04 07:51:00
4:51 AM,66.9,66.0,97,30.13,2.0,Calm,Calm,-,N/A,,Overcast,0,2012-10-04 08:51:00
5:51 AM,66.9,66.0,97,30.13,4.0,Calm,Calm,-,0.00,,Overcast,0,2012-10-04 09:51:00
6:51 AM,66.9,66.0,97,30.14,4.0,SSW,3.5,-,N/A,,Mostly Cloudy,200,2012-10-04 10:51:00
7:51 AM,66.9,66.9,100,30.14,5.0,Calm,Calm,-,N/A,,Mostly Cloudy,0,2012-10-04 11:51:00
8:51 AM,70.0,66.9,90,30.13,5.0,Calm,Calm,-,N/A,,Mostly Cloudy,0,2012-10-04 12:51:00
9:51 AM,71.1,68.0,90,30.14,4.0,SE,3.5,-,N/A,,Overcast,130,2012-10-04 13:51:00
10:12 AM,71.6,68.0,88,30.15,3.0,South,3.5,-,N/A,,Overcast,170,2012-10-04 14:12:00
10:51 AM,72.0,68.0,87,30.14,3.0,Calm,Calm,-,N/A,,Overcast,0,2012-10-04 14:51:00
11:20 AM,73.4,66.2,78,30.13,3.0,Calm,Calm,-,N/A,,Haze,0,2012-10-04 15:20:00
11:51 AM,73.9,66.9,79,30.12,5.0,ESE,3.5,-,N/A,,Haze,120,2012-10-04 15:51:00
12:51 PM,73.0,68.0,84,30.10,5.0,SSE,8.1,-,0.00,,Haze,160,2012-10-04 16:51:00
1:30 PM,71.6,66.2,83,30.09,2.5,SE,9.2,-,0.00,,Overcast,140,2012-10-04 17:30:00
1:40 PM,71.6,68.0,88,30.10,2.5,South,6.9,-,0.00,Rain,Light Rain,170,2012-10-04 17:40:00
1:51 PM,71.1,68.0,90,30.10,2.5,South,4.6,-,0.00,Rain,Light Rain,180,2012-10-04 17:51:00
2:51 PM,71.1,68.0,90,30.07,2.5,ESE,6.9,-,N/A,,Overcast,120,2012-10-04 18:51:00
3:51 PM,71.1,66.9,87,30.07,2.5,SSE,6.9,-,N/A,,Overcast,150,2012-10-04 19:51:00
4:51 PM,70.0,68.0,93,30.06,2.5,SSE,4.6,-,N/A,,Overcast,150,2012-10-04 20:51:00
5:51 PM,70.0,66.9,90,30.05,2.5,SSE,8.1,-,N/A,,Overcast,150,2012-10-04 21:51:00
6:41 PM,69.8,66.2,88,30.06,1.8,Calm,Calm,-,0.00,Rain,Rain,0,2012-10-04 22:41:00
6:51 PM,69.1,68.0,96,30.06,2.0,ESE,3.5,-,0.18,Rain,Heavy Rain,120,2012-10-04 22:51:00
7:09 PM,69.8,68.0,94,30.05,2.0,SSE,8.1,-,0.23,,Mostly Cloudy,150,2012-10-04 23:09:00
7:29 PM,69.8,66.2,88,30.06,6.0,SE,5.8,-,0.23,,Mostly Cloudy,140,2012-10-04 23:29:00
7:51 PM,68.0,66.9,96,30.06,10.0,Calm,Calm,-,0.23,,Mostly Cloudy,0,2012-10-04 23:51:00
8:51 PM,68.0,64.9,90,30.06,10.0,Calm,Calm,-,N/A,,Mostly Cloudy,0,2012-10-05 00:51:00
9:04 PM,69.8,66.2,88,30.06,10.0,SW,3.5,-,N/A,,Mostly Cloudy,220,2012-10-05 01:04:00
9:37 PM,69.8,66.2,88,30.06,10.0,West,3.5,-,N/A,,Mostly Cloudy,260,2012-10-05 01:37:00
9:51 PM,69.1,66.9,93,30.06,7.0,SW,3.5,-,N/A,,Mostly Cloudy,230,2012-10-05 01:51:00
10:32 PM,69.8,66.2,88,30.07,6.0,West,6.9,-,N/A,,Scattered Clouds,270,2012-10-05 02:32:00
10:51 PM,70.0,66.9,90,30.08,7.0,WNW,6.9,-,N/A,,Partly Cloudy,300,2012-10-05 02:51:00
11:51 PM,69.1,64.9,87,30.06,10.0,NW,6.9,-,N/A,,Partly Cloudy,320,2012-10-05 03:51:00